When you browse on this site, cookies collect data to enhance your experience and personalize the content and advertising you see.
Visit our Privacy Policy to learn more. By continuing to use the site, you agree to this use of cookies and data.
  • Em Portugal
  • Lista de países
  • Para 7 dias
  • Temperatura da água
  • Mapas de satélite
  • Mapa do tempo
  • Widgets de tempo
  • user-avatar
    Iniciar Sessão

    Previsão horária em Trzebiec

    Hoje, 10 Dezembro, Segunda-feira

    Tempo Temperatura Precipitação Vento Pressão Humidade
    00:00 +4°C° 0.5 mm 7 m/s 740 mmHg 84%
    01:00 +4°C° 0 mm 7 m/s 741 mmHg 83%
    02:00 +3°C° 0.1 mm 7 m/s 741 mmHg 80%
    03:00 +3°C° 0.1 mm 7 m/s 742 mmHg 78%
    04:00 +3°C° 0.1 mm 7 m/s 743 mmHg 75%
    05:00 +2°C° 0 mm 7 m/s 743 mmHg 75%
    06:00 +2°C° 0 mm 7 m/s 744 mmHg 75%
    07:00 +2°C° 0 mm 6 m/s 745 mmHg 77%
    08:00 +2°C° 0.1 mm 6 m/s 745 mmHg 76%
    09:00 +2°C° 0.1 mm 7 m/s 746 mmHg 74%
    10:00 +3°C° 0.1 mm 7 m/s 746 mmHg 73%
    11:00 +2°C° 0.1 mm 8 m/s 746 mmHg 71%
    12:00 +2°C° 0.1 mm 8 m/s 746 mmHg 70%
    13:00 +2°C° 0.1 mm 8 m/s 746 mmHg 68%
    14:00 +3°C° 0.1 mm 7 m/s 747 mmHg 70%
    15:00 +2°C° 0.1 mm 6 m/s 747 mmHg 72%
    16:00 +2°C° 0.1 mm 6 m/s 747 mmHg 73%
    17:00 +2°C° 0.1 mm 5 m/s 747 mmHg 75%
    18:00 +1°C° 0.1 mm 5 m/s 747 mmHg 78%
    19:00 +1°C° 0.1 mm 5 m/s 747 mmHg 80%
    20:00 +1°C° 0.1 mm 5 m/s 747 mmHg 80%
    21:00 +1°C° 0.1 mm 5 m/s 747 mmHg 81%
    22:00 +1°C° 0.1 mm 5 m/s 747 mmHg 82%
    23:00 +1°C° 0.4 mm 5 m/s 747 mmHg 82%

    Amanhã, 11 Dezembro, Terça-feira

    Tempo Temperatura Precipitação Vento Pressão Humidade
    00:00 +1°C° 0.4 mm 5 m/s 747 mmHg 81%
    01:00 +2°C° 0.4 mm 5 m/s 747 mmHg 81%
    02:00 +3°C° 0.4 mm 4 m/s 747 mmHg 82%
    03:00 +1°C° 0.4 mm 4 m/s 747 mmHg 83%
    04:00 +2°C° 0.4 mm 3 m/s 747 mmHg 85%
    05:00 +2°C° 0.2 mm 3 m/s 748 mmHg 85%
    06:00 +2°C° 0.2 mm 3 m/s 748 mmHg 86%
    07:00 +2°C° 0.2 mm 3 m/s 748 mmHg 87%
    08:00 +1°C° 0.1 mm 4 m/s 749 mmHg 86%
    09:00 +1°C° 0.1 mm 4 m/s 750 mmHg 85%
    10:00 +1°C° 0.1 mm 4 m/s 750 mmHg 84%
    11:00 +2°C° 0.2 mm 5 m/s 751 mmHg 83%
    12:00 +2°C° 0.2 mm 5 m/s 751 mmHg 81%
    13:00 +3°C° 0.2 mm 5 m/s 752 mmHg 80%
    14:00 +2°C° 0.2 mm 5 m/s 752 mmHg 81%
    15:00 +2°C° 0.2 mm 5 m/s 753 mmHg 82%
    16:00 +2°C° 0.2 mm 5 m/s 753 mmHg 84%
    17:00 +1°C° 0.1 mm 4 m/s 754 mmHg 85%
    18:00 +1°C° 0.1 mm 4 m/s 754 mmHg 87%
    19:00 +1°C° 0.1 mm 3 m/s 755 mmHg 88%
    20:00 +1°C° 0 mm 3 m/s 755 mmHg 89%
    21:00 +1°C° 0 mm 3 m/s 756 mmHg 90%
    22:00 +1°C° 0 mm 2 m/s 756 mmHg 90%
    23:00 +1°C° 0 mm 2 m/s 757 mmHg 90%

    Depois de amanhã, 12 Dezembro, Quarta-feira

    Tempo Temperatura Precipitação Vento Pressão Humidade
    00:00 +1°C° 0 mm 2 m/s 757 mmHg 90%
    01:00 +2°C° 0 mm 1 m/s 758 mmHg 90%
    02:00 +1°C° 0 mm 2 m/s 758 mmHg 89%
    03:00 +1°C° 0 mm 2 m/s 758 mmHg 89%
    04:00 +1°C° 0 mm 2 m/s 758 mmHg 89%
    05:00 +2°C° 0 mm 1 m/s 759 mmHg 89%
    06:00 +2°C° 0 mm 1 m/s 759 mmHg 89%
    07:00 +1°C° 0 mm 1 m/s 759 mmHg 89%
    08:00 +2°C° 0 mm 1 m/s 760 mmHg 87%
    09:00 +2°C° 0 mm 1 m/s 760 mmHg 85%
    10:00 +3°C° 0 mm 1 m/s 760 mmHg 84%
    11:00 +3°C° 0.1 mm 1 m/s 760 mmHg 83%
    12:00 +4°C° 0.1 mm 1 m/s 760 mmHg 82%
    13:00 +4°C° 0.1 mm 1 m/s 760 mmHg 81%
    14:00 +4°C° 0.1 mm 1 m/s 760 mmHg 84%
    15:00 +2°C° 0.1 mm 2 m/s 760 mmHg 87%
    16:00 +2°C° 0.1 mm 2 m/s 760 mmHg 90%
    17:00 +2°C° 0.1 mm 2 m/s 761 mmHg 90%
    18:00 +2°C° 0.1 mm 2 m/s 761 mmHg 91%
    19:00 +2°C° 0.1 mm 2 m/s 761 mmHg 92%
    20:00 +2°C° 0 mm 2 m/s 761 mmHg 92%
    21:00 0°C° 0 mm 3 m/s 761 mmHg 93%
    22:00 0°C° 0 mm 3 m/s 761 mmHg 93%
    23:00 +1°C° 0 mm 2 m/s 761 mmHg 93%

    13 Dezembro, Quinta-feira

    Tempo Temperatura Precipitação Vento Pressão Humidade
    00:00 +1°C° 0 mm 2 m/s 761 mmHg 93%
    01:00 +1°C° 0 mm 2 m/s 761 mmHg 94%
    02:00 +1°C° 0 mm 2 m/s 761 mmHg 93%
    03:00 +1°C° 0 mm 2 m/s 761 mmHg 93%
    04:00 +1°C° 0 mm 2 m/s 761 mmHg 92%
    05:00 +1°C° 0 mm 2 m/s 760 mmHg 93%
    06:00 +1°C° 0 mm 2 m/s 760 mmHg 93%
    07:00 +1°C° 0 mm 2 m/s 760 mmHg 93%
    08:00 +1°C° 0 mm 2 m/s 760 mmHg 91%
    09:00 +1°C° 0 mm 2 m/s 760 mmHg 89%
    10:00 +1°C° 0 mm 3 m/s 760 mmHg 87%
    11:00 +1°C° 0 mm 3 m/s 760 mmHg 84%
    12:00 +1°C° 0 mm 3 m/s 760 mmHg 81%
    13:00 +2°C° 0 mm 3 m/s 759 mmHg 78%
    14:00 +1°C° 0 mm 3 m/s 759 mmHg 80%
    15:00 +1°C° 0 mm 3 m/s 759 mmHg 82%
    16:00 0°C° 0 mm 3 m/s 759 mmHg 84%
    17:00 0°C° 0 mm 3 m/s 759 mmHg 85%
    18:00 +1°C° 0 mm 2 m/s 759 mmHg 85%
    19:00 +1°C° 0 mm 2 m/s 759 mmHg 86%
    20:00 +1°C° 0 mm 2 m/s 760 mmHg 86%
    21:00 +1°C° 0 mm 2 m/s 760 mmHg 87%
    22:00 -1°C° 0 mm 2 m/s 760 mmHg 87%
    23:00 -1°C° 0 mm 2 m/s 760 mmHg 88%

    14 Dezembro, Sexta-feira

    Tempo Temperatura Precipitação Vento Pressão Humidade
    00:00 -1°C° 0 mm 2 m/s 760 mmHg 89%
    01:00 +1°C° 0 mm 1 m/s 761 mmHg 89%
    02:00 -1°C° 0 mm 2 m/s 761 mmHg 90%
    03:00 -1°C° 0 mm 2 m/s 761 mmHg 91%
    04:00 -1°C° 0 mm 2 m/s 761 mmHg 92%
    05:00 -2°C° 0 mm 2 m/s 761 mmHg 92%
    06:00 -2°C° 0 mm 2 m/s 762 mmHg 93%
    07:00 -2°C° 0 mm 2 m/s 762 mmHg 94%
    08:00 -2°C° 0 mm 2 m/s 763 mmHg 92%
    09:00 -1°C° 0 mm 3 m/s 763 mmHg 90%
    10:00 -1°C° 0 mm 3 m/s 764 mmHg 88%
    11:00 0°C° 0 mm 3 m/s 764 mmHg 86%
    12:00 0°C° 0 mm 3 m/s 764 mmHg 84%
    13:00 +1°C° 0 mm 2 m/s 765 mmHg 82%
    14:00 +1°C° 0 mm 2 m/s 765 mmHg 84%
    15:00 -1°C° 0 mm 2 m/s 765 mmHg 87%
    16:00 -1°C° 0 mm 2 m/s 765 mmHg 89%
    17:00 -1°C° 0 mm 2 m/s 766 mmHg 89%
    18:00 -1°C° 0 mm 2 m/s 766 mmHg 88%
    19:00 -1°C° 0 mm 2 m/s 766 mmHg 88%
    20:00 -1°C° 0 mm 2 m/s 767 mmHg 88%
    21:00 -1°C° 0 mm 2 m/s 767 mmHg 88%
    22:00 -1°C° 0 mm 2 m/s 767 mmHg 88%
    23:00 -1°C° 0 mm 2 m/s 767 mmHg 88%

    15 Dezembro, Sábado

    Tempo Temperatura Precipitação Vento Pressão Humidade
    00:00 -1°C° 0 mm 2 m/s 768 mmHg 88%
    01:00 -1°C° 0 mm 2 m/s 768 mmHg 88%
    02:00 -1°C° 0 mm 2 m/s 768 mmHg 88%
    03:00 -1°C° 0 mm 2 m/s 768 mmHg 88%
    04:00 -1°C° 0 mm 2 m/s 768 mmHg 88%
    05:00 -1°C° 0 mm 2 m/s 769 mmHg 88%
    06:00 -1°C° 0 mm 2 m/s 769 mmHg 88%
    07:00 -1°C° 0 mm 2 m/s 769 mmHg 88%
    08:00 -1°C° 0 mm 2 m/s 769 mmHg 87%
    09:00 -1°C° 0 mm 3 m/s 770 mmHg 85%
    10:00 -1°C° 0 mm 3 m/s 770 mmHg 84%
    11:00 0°C° 0 mm 3 m/s 770 mmHg 81%
    12:00 0°C° 0 mm 3 m/s 770 mmHg 78%
    13:00 +1°C° 0 mm 3 m/s 770 mmHg 75%
    14:00 0°C° 0 mm 3 m/s 770 mmHg 79%
    15:00 -1°C° 0 mm 3 m/s 770 mmHg 83%
    16:00 -2°C° 0 mm 3 m/s 770 mmHg 87%
    17:00 -2°C° 0 mm 3 m/s 770 mmHg 88%
    18:00 -3°C° 0 mm 4 m/s 770 mmHg 88%
    19:00 -3°C° 0 mm 4 m/s 770 mmHg 89%
    20:00 -3°C° 0 mm 4 m/s 769 mmHg 88%
    21:00 -4°C° 0 mm 5 m/s 769 mmHg 87%
    22:00 -4°C° 0 mm 5 m/s 769 mmHg 86%
    23:00 -4°C° 0 mm 5 m/s 769 mmHg 85%
    Mostrar mais